This demonstration page uses our WeatherBlox Daily Observations layout. Learn more.

Left ArrowRight Arrow

34.02893, -84.19858

Hourly Observations for March 10, 2016

Temp ( °F °C ) Dew Point ( °F °C ) Humidity (%) Winds ( mph kmh ) Pressure ( in mb ) Visibility ( mi km ) Precip ( " mm )
12:53 am 00:53 Partly Cloudy 64 17.8 54 12.2 70 70 SE 7 11 30.15 1021 10 16 0.00 0.00
1:53 am 01:53 Clear 62 16.7 55 12.8 78 78 SE 5 7 30.17 1022 10 16 0.00 0.00
2:53 am 02:53 Cloudy 61 16.1 56 13.3 84 84 SE 6 9 30.15 1021 10 16 0.00 0.00
3:53 am 03:53 Mostly Cloudy 60 15.6 56 13.3 86 86 ESE 5 7 30.14 1021 10 16 0.00 0.00
4:53 am 04:53 Cloudy 60 15.6 56 13.3 86 86 ESE 5 7 30.13 1020 10 16 0.00 0.00
5:53 am 05:53 Cloudy 59 15 57 13.9 93 93 SE 3 6 30.15 1021 10 16 0.00 0.00
6:53 am 06:53 Cloudy 59 15 57 13.9 93 93 ESE 5 7 30.16 1021 10 16 0.00 0.00
7:53 am 07:53 Mostly Cloudy 60 15.6 57 13.9 90 90 VRB 6 9 30.16 1022 10 16 0.00 0.00
8:53 am 08:53 Mostly Cloudy 64 17.8 58 14.4 81 81 S 8 13 30.18 1022 10 16 0.00 0.00
9:53 am 09:53 Mostly Cloudy 67 19.4 58 14.4 73 73 S 12 19 30.18 1022 10 16 0.00 0.00
10:53 am 10:53 Cloudy 69 20.6 59 15 70 70 S 8 13 30.18 1022 10 16 0.00 0.00
11:53 am 11:53 Partly Cloudy 73 22.8 57 13.9 57 57 S 8 13 30.16 1022 10 16 0.00 0.00
12:53 pm 12:53 Partly Cloudy 74 23.3 56 13.3 54 54 S 16 26 30.14 1021 10 16 0.00 0.00
1:53 pm 13:53 Mostly Sunny 75 23.9 56 13.3 52 52 SSE 14 22 30.12 1020 10 16 0.00 0.00
2:53 pm 14:53 Mostly Sunny 76 24.4 56 13.3 50 50 S 13 20 30.09 1019 10 16 0.00 0.00
3:53 pm 15:53 Sunny 77 25 56 13.3 48 48 S 12 19 30.08 1019 10 16 0.00 0.00
4:53 pm 16:53 Mostly Sunny 76 24.4 56 13.3 50 50 SSE 9 15 30.06 1018 10 16 0.00 0.00
5:53 pm 17:53 Partly Cloudy 74 23.3 56 13.3 54 54 SSE 12 19 30.09 1019 10 16 0.00 0.00
6:53 pm 18:53 Clear 73 22.8 56 13.3 55 55 SSE 9 15 30.08 1019 10 16 0.00 0.00
7:53 pm 19:53 Cloudy 71 21.7 56 13.3 59 59 S 5 7 30.13 1020 10 16 0.00 0.00
8:53 pm 20:53 Cloudy 70 21.1 57 13.9 64 64 S 3 6 30.16 1021 10 16 0.00 0.00
9:53 pm 21:53 Cloudy 71 21.7 57 13.9 61 61 SSE 5 7 30.15 1021 10 16 0.00 0.00
10:53 pm 22:53 Cloudy 70 21.1 58 14.4 66 66 NW 20 31 30.21 1023 7 11 0.00 0.00
11:08 pm 23:08 Cloudy with Light Rain 64 18 63 17 94 94 NW 10 17 30.27 1025 6 10 0.00 0.00
11:53 pm 23:53 Cloudy 64 17.8 63 17.2 96 96 SSE 6 9 30.19 1022 9 14 0.02 0.51

Powered by AerisWeather